Regional Weather Roundup
Issued by NWS

Home | Current Version | Previous Version | Text Only | Print | Product List | Glossary On
Versions: 1 2 3 4 5 6 7 8 9 10 11 12 13 14 15 16 17 18 19 20 21 22 23 24 25 26 27 28 29 30 31 32 33 34 35 36 37 38 39 40 41 42 43 44 45 46 47 48 49 50
000
ASUS45 KBOU 170810
RWRCO

WEATHER ROUNDUP FOR COLORADO
NATIONAL WEATHER SERVICE DENVER/BOULDER CO
100 AM MST MON FEB 17 2020

NOTE: "FAIR" INDICATES FEW OR NO CLOUDS BELOW 12000 FEET WITH NO
SIGNIFICANT WEATHER AND/OR OBSTRUCTIONS TO VISIBILITY.

COZ001>005-013-030-031-170900-
...NORTHWEST COLORADO...

CITY           SKY/WX    TMP DP  RH WIND       PRES   REMARKS
CRAIG          FLURRIES  31  25  78 SW3       29.96R
HAYDEN         FLURRIES  28  25  88 W6        29.96R WCI  22
MEEKER         MOCLDY    35  26  69 W9        29.95S WCI  28
RANGELY        FAIR      27  25  94 N3        29.97S
RABBIT EARS PA CLOUDY   N/A N/A N/A MISG      29.87R
STEAMBOAT SPGS CLOUDY    27  27 100 NW3       29.92S
WALDEN         NOT AVBL
$$

COZ006>008-011-170900-
...WEST CENTRAL VALLEYS...

CITY           SKY/WX    TMP DP  RH WIND       PRES   REMARKS
GRAND JUNCTION MOCLDY    35  25  66 S3        29.94S
MONTROSE       CLOUDY    38  29  70 NW5       29.97S
EAGLE          FAIR      30  28  92 CALM      29.94F
RIFLE          FAIR      32  25  75 E5        29.93S WCI  27
DELTA          MOCLDY    39  31  71 E5        29.95F
NUCLA          CLOUDY    39  30  70 S3        30.00S
$$

COZ017>023-064>068-170900-
...SOUTHWEST COLORADO...

CITY           SKY/WX    TMP DP  RH WIND       PRES   REMARKS
DURANGO        FAIR      35  25  66 E5        29.96F WCI  31
CORTEZ         CLOUDY    33  22  63 CALM      29.97S
PAGOSA SPRINGS CLOUDY    35  26  68 CALM      29.99S
TELLURIDE      CLOUDY    32  30  93 CALM      30.03F
WOLF CREEK PAS CLOUDY    21  19  93 SW15G23   30.07F WCI   8
$$

COZ009-010-012-014-032>034-037-058>063-170900-
...CENTRAL COLORADO...

CITY           SKY/WX    TMP DP  RH WIND       PRES   REMARKS
ASPEN          FLURRIES  33  25  72 N6        29.91S WCI  28
BUENA VISTA    FAIR      33  26  75 W6        29.87S WCI  27
COPPER MTN     SNOW      23  18  80 W29G37    29.88F VSB 1/2 WCI   6
BERTHOUD PASS  CLOUDY    14   1  57 MISG      29.81R
DAKOTA HILL    CLOUDY    18  16  93 NW18G30   29.83F WCI   2
COTTONWOOD PAS MOCLDY    32  19  59 W23G40    29.87R WCI  19
GUNNISON       CLOUDY    29  27  92 CALM      29.96S
GRANBY         CLOUDY    29  23  79 W16G23    29.89R WCI  17
KREMMLING      FAIR      30  25  80 NW7       29.91R WCI  23
LEADVILLE      LGT SNOW  24  20  84 NW14G28   29.90R VSB 3/4 WCI  12
MONARCH PASS   CLOUDY    21  19  93 MISG      30.01R
SALIDA           N/A     41  24  50 W18G30    29.94S
SUNLIGHT       NOT AVBL
WILKERSON PASS FAIR      21  18  86 W9G23     29.90S WCI  11
$$

COZ069>075-170900-
...SAN LUIS VALLEY/SANGRE DE CRISTO MOUNTAINS...

CITY           SKY/WX    TMP DP  RH WIND       PRES   REMARKS
ALAMOSA        MOCLDY    31  20  63 NE5       29.93F WCI  26
DEL NORTE      FAIR      29  23  76 CALM      29.94F
LA VETA PASS   FAIR      28  21  74 SW16G26   29.89F WCI  17
SAGUACHE       FAIR      36  27  69 W15       29.93S
$$

COZ035-036-038>040-170900-
...NORTHERN COLORADO FRONT RANGE...

CITY           SKY/WX    TMP DP  RH WIND       PRES   REMARKS
DENVER INTL AP MOCLDY    33  25  72 S5        29.83R WCI  29
AURORA         PTCLDY    30  24  78 SW3       29.84R
FRONT RANGE AP NOT AVBL
ERIE MUNI ARPT MOCLDY    31  26  81 S3        29.87F
BOULDER MUN AP CLOUDY    36  27  69 SW5       29.80F
CENTENNIAL     FAIR      31  23  72 CALM      29.83R
BROOMFIELD     MOCLDY    34  27  75 SW12G20   29.83S WCI  25
FORT COLLINS   CLOUDY    36  26  67 N6        29.85R
LONGMONT       FAIR      32  25  76 N9        29.85R WCI  24
$$

COZ041-046-047-076>085-087-088-170900-
...PIKES PEAK/PALMER DIVIDE AND SOUTHERN FOOTHILLS...

CITY           SKY/WX    TMP DP  RH WIND       PRES   REMARKS
COLO. SPRINGS  FAIR      39  22  50 N13       29.78F
A. F. ACADEMY  FAIR      42  21  43 W17G26    29.77S
SCHRIEVER AFB  NOT AVBL
CHEYENNE MTN   FAIR      38  22  52 NW5       29.74F
ELLICOTT       FAIR      35  24  63 N7        29.79F WCI  29
FALCON         FAIR      35  20  56 NW9       29.81S WCI  27
FORT CARSON    FAIR      46  22  38 NW7       29.76F
LIMON          FAIR      33  24  69 E10G17    29.80R WCI  25
MONUMENT HILL  FAIR      27  19  74 MISG      29.83R
CANON CITY     NOT AVBL
WALSENBURG     NOT AVBL
TRINIDAD       FAIR      34  26  72 NW8       29.80S WCI  27
$$

COZ042>045-048>051-090-091-170900-
...NORTHEAST COLORADO...

CITY           SKY/WX    TMP DP  RH WIND       PRES   REMARKS
GREELEY ARPT   CLOUDY    39  28  64 NW13      29.84S
AKRON          LGT RAIN  35  27  72 S5        29.81R WCI  31
BURLINGTON     FAIR      32  24  72 NE10      29.80R WCI  24
WRAY           CLOUDY    41  32  70 W5        29.81S
YUMA           CLOUDY    34  27  75 CALM      29.81S
STERLING       MOCLDY    45  32  61 W17       29.78S
HOLYOKE        FAIR      37  34  87 SW3       29.78F
FORT MORGAN    CLOUDY    37  28  69 SE14G24   29.84R
$$

COZ086-089-092>099-170900-
...SOUTHEAST COLORADO...

CITY           SKY/WX    TMP DP  RH WIND       PRES   REMARKS
PUEBLO         FAIR      48  28  46 NW14      29.75F
LA JUNTA       FAIR      34  24  67 NW8       29.76R WCI  27
LAMAR          FAIR      29  22  75 W5        29.74R WCI  24
SPRINGFIELD      N/A     42  26  53 W15       29.74S
$$



USA.gov is the U.S. government's official web portal to all federal, state and local government web resources and services.